Simultaneous Nadir Overpasses (SNOs) Predictions

Prediction of SNOs between NOAA-19 and METOP-C Satellite Orbit:

Table of predicted SNOs for the next 14.0 days since TLE Epoch: 2/27/2021
Index Date (NOAA-19) Time (NOAA-19) Lat,Lon (NOAA-19) SZA (NOAA-19 ) Date (METOP-C) Time (METOP-C) Lat,Lon (METOP-C) SZA (METOP-C ) Distance(km) Time Diff (sec)
1 03/09/2021 05:26:47 -80.41, -54.77 94.39 03/09/2021 05:27:59 -80.41, -54.70 94.37 1.30 72
2 03/09/2021 06:17:44 80.41, 112.58 85.60 03/09/2021 06:18:39 80.41, 112.57 85.61 0.35 55
3 03/09/2021 07:08:47 -80.40, -80.13 94.42 03/09/2021 07:09:21 -80.40, -80.18 94.42 1.08 34
4 03/09/2021 07:59:44 80.40, 87.22 85.58 03/09/2021 08:00:01 80.39, 87.09 85.57 2.48 17
5 03/09/2021 08:50:47 -80.40,-105.48 94.44 03/09/2021 08:50:43 -80.39,-105.65 94.46 3.26 4
6 03/09/2021 09:41:44 80.39, 61.86 85.55 03/09/2021 09:41:22 80.41, 61.94 85.57 2.38 22
7 03/09/2021 10:32:47 -80.39,-130.84 94.47 03/09/2021 10:32:04 -80.40,-130.81 94.46 1.70 43
8 03/09/2021 11:23:44 80.39, 36.50 85.53 03/09/2021 11:22:44 80.40, 36.47 85.52 1.65 60



Historial Predications of SNOs between NOAA-19 and METOP-C
